Regional Weather Roundup
Issued by NWS

Home | Current Version | Previous Version | Graphics & Text | Print | Product List | Glossary On
Versions: 1 2 3 4 5 6 7 8 9 10 11 12 13 14 15 16 17 18 19 20 21 22 23 24 25 26 27 28 29 30 31 32 33 34 35 36 37 38 39 40 41 42 43 44 45 46 47 48 49 50
000
ASUS44 KMEG 191310
RWRTN
TENNESSEE HOURLY STATE WEATHER ROUNDUP
NATIONAL WEATHER SERVICE MEMPHIS TN
800 AM CDT SAT APR 19 2014

TNZ002-004-019-021-049-052-054-088>092-191400-
WEST TENNESSEE

CITY           SKY/WX    TMP DP  RH WIND       PRES   REMARKS
MEMPHIS INTL   MOSUNNY   60  51  72 CALM      30.21R
NWS MEMPHIS      N/A     55 N/A N/A MISG        N/A
JACKSON        SUNNY     55  49  80 CALM      30.21S HAZE
DYERSBURG      SUNNY     57  41  54 NE5       30.23S
UNION CITY     SUNNY     54  46  76 N3        30.22R
PARIS          SUNNY     53  45  74 NE5       30.22R
LEXINGTON      SUNNY     54  46  76 N3        30.20R
SILERTON         N/A     60  50  69 N3          N/A
SAVANNAH       SUNNY     51  51 100 CALM      30.20
$$

TNZ008-025-027-028-033-062-065-066-191400-
NORTH MIDDLE TENNESSEE

CITY           SKY/WX    TMP DP  RH WIND       PRES   REMARKS
NASHVILLE      MOSUNNY   57  46  66 N7        30.21R
DICKSON        SUNNY     57  43  58 NE7       30.21R
PORTLAND       SUNNY     52  45  76 N6        30.22R
CLARKSVILLE    SUNNY     56  45  66 CALM      30.23R
SMYRNA         SUNNY     57  46  66 N12       30.21R
MURFREESBORO   SUNNY     54  46  74 CALM      30.19R
COOKEVILLE     SUNNY     55  46  71 CALM      30.17S
LIVINGSTON     PTSUNNY   52  38  58 NE9       30.20R
GALLATIN       SUNNY     57  44  62 N12       30.21R
CROSSVILLE     PTSUNNY   53  37  54 NE6       30.19S
$$

TNZ061-075-076-078-094-096-097-191400-
SOUTH MIDDLE TENNESSEE

CITY           SKY/WX    TMP DP  RH WIND       PRES   REMARKS
LEWISBURG      SUNNY     54  47  77 CALM      30.18R
FAYETTEVILLE   CLOUDY    51  45  80 NE9       30.15S
TULLAHOMA      SUNNY     52  45  76 NE5       30.17S
WINCHESTER     SUNNY     50  46  87 CALM      30.16S
MCMINNVILLE    SUNNY     48  48 100 N3        30.17S
COLUMBIA       SUNNY     52  52 100 CALM      30.18R
SHELBYVILLE    SUNNY     54  48  82 N7        30.18S
$$

TNZ017-018-042-046-047-191400-
NORTHEAST TENNESSEE

CITY           SKY/WX    TMP DP  RH WIND       PRES   REMARKS
TRI CITIES     PTSUNNY   55  38  52 NE6       30.17S
ELIZABETHTON   PTSUNNY   52  41  66 CALM      30.17S
$$

TNZ012-013-036-069-073-074-191400-
CENTRAL EAST TENNESSEE

CITY           SKY/WX    TMP DP  RH WIND       PRES   REMARKS
KNOXVILLE      CLOUDY    54  43  66 NE5       30.16R
OAK RIDGE      CLOUDY    55  43  63 NE5       30.17S
$$

TNZ083-085-099-191400-
SOUTHEAST TENNESSEE

CITY           SKY/WX    TMP DP  RH WIND       PRES   REMARKS
CHATTANOOGA    CLOUDY    59  44  57 N6        30.14R
$$

SKY/WX REPORTED AS FAIR MEANS FEW OR NO CLOUDS BELOW
12 THOUSAND FEET.




USA.gov is the U.S. government's official web portal to all federal, state and local government web resources and services.